Flag for France Weather past 2 weeks in Périgueux, France

Now
55 °F

Cloudy.


Feels Like: 53 °F
Forecast: 50 / 54 °F
Wind: 8 mph from West

Location: Bergerac Airport

Current Time: Dec 18, 2014 at 5:10:59 PM

Latest Report: Dec 18, 2014 at 4:30 PM


Visibility: N/A

Pressure: 30.36 "Hg

Humidity: 94%

Dew point: 54 °F

Location of PérigueuxLocation

Historic Weather in Périgueux — Graph

°F

Périgueux temperature yesterday

Maximum temperature yesterday: 55 °F (at 1:30 PM)
Minimum temperature yesterday: 46 °F (at 12:00 AM)
Average temperature yesterday: 51 °F

Past Weeks' High & Low Weather Summary

 TemperatureHumidityPressure
High57 °F (Dec 18, 1:30 PM)100% (Dec 5, 6:00 AM)30.54 "Hg (Dec 5, 6:00 AM)
Low28 °F (Dec 9, 11:00 PM)57% (Dec 6, 3:30 PM)29.80 "Hg (Dec 13, 1:30 AM)
Average44 °F87%30.16 "Hg
* Reported Dec 3 4:00 PM — Dec 18 4:00 PM, Périgueux, Weather by CustomWeather, © 2014

Note: Actual official high and low records may vary slightly from our data, if they occured in-between our weather recording intervals... More about our weather records

Advertising

Périgueux weather history for previous 24 hours

 ConditionsComfort  
Time TempWeatherWind HumidityBarometerVisibility
4:00 PM
Dec 18
57 °FPartly sunny.9 mph88%30.36 "HgN/A
3:30 PM57 °FBroken clouds.12 mph88%30.36 "HgN/A
3:00 PM57 °FMostly cloudy.12 mph88%30.36 "HgN/A
2:30 PM57 °FMostly cloudy.10 mph94%30.36 "HgN/A
2:00 PM57 °FMostly cloudy.12 mph94%30.36 "HgN/A
1:30 PM57 °FMore clouds than sun.13 mph88%30.36 "HgN/A
1:00 PM55 °FMostly cloudy.9 mph100%30.36 "HgN/A
12:30 PM55 °FDrizzle. Low clouds.9 mph100%30.36 "Hg5 mi
12:00 PM55 °FMostly cloudy.10 mph94%30.36 "HgN/A
11:30 AM55 °FLow clouds.10 mph94%30.36 "HgN/A
11:00 AM55 °FMostly cloudy.10 mph94%30.36 "HgN/A
10:30 AM55 °FDrizzle. Fog.10 mph94%30.33 "Hg2 mi
10:00 AM55 °FLow clouds.12 mph94%30.33 "HgN/A
9:30 AM55 °FDrizzle. Fog.10 mph94%30.30 "Hg2 mi
9:00 AM55 °FDrizzle. Fog.10 mph94%30.30 "Hg2 mi
8:30 AM55 °FDrizzle. Fog.10 mph94%30.27 "Hg3 mi
8:00 AM55 °FDrizzle. Fog.12 mph94%30.27 "Hg3 mi
7:30 AM55 °FDrizzle. Fog.10 mph94%30.27 "Hg3 mi
7:00 AM55 °FDrizzle. Fog.12 mph94%30.24 "Hg2 mi
6:30 AM55 °FLow clouds.13 mph94%30.24 "Hg5 mi
6:00 AM55 °FLight rain. Low clouds.13 mph94%30.24 "HgN/A
5:30 AM55 °FDrizzle. Low clouds.13 mph94%30.24 "HgN/A
4:30 AM54 °FDrizzle. Fog.13 mph100%30.24 "Hg3 mi
4:00 AM54 °FFog.13 mph100%30.21 "Hg2 mi
3:30 AM54 °FDrizzle. Low clouds.13 mph100%30.24 "HgN/A
3:00 AM54 °FDrizzle. Fog.13 mph100%30.24 "Hg2 mi
2:30 AM54 °FDrizzle. Low clouds.13 mph100%30.21 "Hg5 mi
2:00 AM54 °FDrizzle. Fog.13 mph94%30.21 "Hg3 mi
1:30 AM54 °FDrizzle. Fog.15 mph94%30.21 "Hg3 mi
1:00 AM54 °FDrizzle. Fog.12 mph100%30.21 "Hg2 mi
12:30 AM54 °FDrizzle. Low clouds.13 mph100%30.21 "Hg4 mi
12:00 AM54 °FDrizzle. Fog.14 mph100%30.21 "Hg3 mi
11:30 PM
Dec 17
54 °FDrizzle. Fog.14 mph100%30.21 "Hg3 mi
11:00 PM54 °FDrizzle. Low clouds.14 mph100%30.21 "Hg5 mi
10:30 PM54 °FDrizzle. Low clouds.14 mph100%30.21 "Hg4 mi
10:00 PM54 °FLight rain. Fog.13 mph100%30.21 "Hg3 mi
9:30 PM54 °FDrizzle. Fog.14 mph94%30.21 "Hg3 mi
9:00 PM54 °FDrizzle. Low clouds.13 mph94%30.18 "Hg4 mi
8:30 PM54 °FLight rain. Fog.14 mph94%30.18 "Hg2 mi
8:00 PM54 °FLight rain. Fog.14 mph94%30.18 "Hg1 mi
7:30 PM54 °FLight rain. Fog.14 mph94%30.15 "Hg2 mi
7:00 PM54 °FDrizzle. Low clouds.14 mph94%30.15 "Hg4 mi
6:30 PM52 °FLight rain. Fog.12 mph94%30.15 "Hg3 mi
6:00 PM52 °FDrizzle. Fog.14 mph94%30.15 "Hg3 mi
5:30 PM54 °FDrizzle. Mostly cloudy.16 mph88%30.15 "HgN/A
5:00 PM54 °FMostly cloudy.16 mph82%30.15 "HgN/A
Weather by CustomWeather, © 2014

See weather overviewHow to use our weather pages